Effective Sunday, March 17, 2024, the National Weather Service National Data Buoy Center will discontinue its Dial-A-Buoy Interactive Voice Response system. For more information, see Service Change Notice 24-06 (PDF).

Station NCHT2 - 8770777 - Manchester, TX Image indicating link to RSS feed of recent meteorological observations for station NCHT2


Conditions at NCHT2 as of
(1:18 pm CST)
1918 GMT on 03/03/2024:
     

Click on the graph icon in the table below to see a time series plot of the last five days of that observation.

5-day plot - Wind Direction Wind Direction (WDIR):SSE ( 150 deg true )
5-day plot - Wind Speed Wind Speed (WSPD): 8.0 kts
5-day plot - Wind Gust Wind Gust (GST): 11.1 kts
5-day plot - Atmospheric Pressure Atmospheric Pressure (PRES):29.88 in
5-day plot - Wind Speed at 10 Meters Wind Speed at 10 meters (WSPD10M): 9.7 kts
5-day plot - Wind Speed at 20 Meters Wind Speed at 20 meters (WSPD20M): 9.7 kts
5-day plot -  Wind Speed, Wind Gust and Atmospheric Pressure Combined plot of Wind Speed, Gust, and Air Pressure
Previous observations
TIME
(CST)
5-day plot - Wind Direction
WDIR
 
5-day plot - Wind Speed
WSPD
kts
5-day plot - Wind Gust
GST
kts
5-day plot - Wave Height
WVHT
ft
5-day plot - Dominant Wave Period
DPD
sec
5-day plot - Average Wave Period
APD
sec
5-day plot - Mean Wave Direction
MWD
 
5-day plot - Atmospheric Pressure
PRES
in
5-day plot - Pressure Tendency
PTDY
in
5-day plot - Air Temperature
ATMP
°F
5-day plot - Water Temperature
WTMP
°F
5-day plot - Dew Point
DEWP
°F
5-day plot - Salinity
SAL
psu
5-day plot - Visibility
VIS
nmi
5-day plot - Tide (above MLLW)
TIDE
ft
2024-03-03 01:12 pmSSE 4.1 7.0----29.89-------
2024-03-03 01:06 pm S 5.1 7.0----29.89-------
2024-03-03 01:00 pm SE 4.1 7.0----29.89-0.07------
2024-03-03 12:54 pm SE 4.1 8.9----29.89-------
2024-03-03 12:48 pm--------- 72.9-----
2024-03-03 12:42 pm--------- 73.0-----
2024-03-03 12:36 pm--------- 72.9-----
2024-03-03 12:30 pm SE 5.1 8.0----29.90- 72.5-----
2024-03-03 12:24 pm SE 6.0 8.0----29.90- 72.1-----
2024-03-03 12:18 pmSSE 6.0 8.9----29.91- 72.3-----
2024-03-03 12:12 pm SE 6.0 7.0----29.92- 72.3-----
2024-03-03 12:06 pm SE 5.1 7.0----29.93- 72.1-----
2024-03-03 12:00 pm S 4.1 8.0----29.93-0.02 71.6-----
2024-03-03 11:54 amSSE 5.1 8.9----29.93- 71.1-----
2024-03-03 11:48 am SE 5.1 8.0----29.93- 71.2-----
2024-03-03 11:42 am SE 6.0 8.0----29.93- 71.2-----
2024-03-03 11:36 am SE 4.1 6.0----29.93- 71.4-----
2024-03-03 11:30 amSSE 2.9 6.0----29.93- 70.9-----
2024-03-03 11:24 amSSE 4.1 6.0----29.94- 69.8-----
2024-03-03 11:18 am S 5.1 8.0----29.94-------
2024-03-03 11:12 amSSW 2.9 7.0----29.95-------
2024-03-03 11:06 am S 4.1 5.1----29.95-------
2024-03-03 11:00 amSSE 2.9 6.0----29.95-------
2024-03-03 10:54 am S 4.1 7.0----29.95-------
2024-03-03 10:48 amSSE 5.1 6.0----29.95- 68.5-----
2024-03-03 10:42 am S 2.9 5.1----29.95- 68.7-----
2024-03-03 10:36 amSSW 2.9 5.1----29.95- 68.4-----
2024-03-03 10:30 amSSE 4.1 6.0----29.95- 68.4-----
2024-03-03 10:24 amSSE 1.9 5.1----29.95- 68.2-----
2024-03-03 10:18 am SE 4.1 6.0----29.95- 68.0-----
2024-03-03 10:12 am SE 2.9 6.0----29.96- 67.8-----
2024-03-03 10:06 am SE 2.9 4.1----29.96- 67.8-----
2024-03-03 10:00 am SE 2.9 5.1----29.96+0.04 67.6-----
2024-03-03 09:54 am SE 4.1 5.1----29.96- 67.8-----
2024-03-03 09:48 am SE 2.9 5.1----29.96- 67.6-----
2024-03-03 09:42 amSSW 1.9 6.0----29.96- 67.6-----
2024-03-03 09:36 am S 2.9 7.0----29.96- 67.8-----
2024-03-03 09:30 am SE 1.9 5.1----29.96- 67.8-----
2024-03-03 09:24 amSSW 4.1 7.0----29.96- 67.6-----
2024-03-03 09:18 amSSW 1.9 5.1----29.95- 67.5-----
2024-03-03 09:12 am SW 2.9 4.1----29.95- 67.3-----
2024-03-03 09:06 am SW 1.9 4.1----29.95- 67.1-----
2024-03-03 09:00 amSSW 4.1 6.0----29.95+0.04 66.9-----
2024-03-03 08:54 am S 4.1 5.1----29.95- 66.7-----
2024-03-03 08:48 amSSW 2.9 6.0----29.95- 66.6-----
2024-03-03 08:42 am SW 2.9 7.0----29.94- 66.6-----
2024-03-03 08:36 am SW 4.1 8.0----29.94- 66.7-----
2024-03-03 08:30 am SW 1.0 5.1----29.94-------
2024-03-03 08:24 amSSW 4.1 7.0----29.94-------
2024-03-03 08:18 am S 2.9 5.1----29.93-------
2024-03-03 08:12 am SE 4.1 5.1----29.93-------
2024-03-03 08:06 amSSE 4.1 5.1----29.93-------
2024-03-03 08:00 amSSE 4.1 7.0------ 66.2-----
2024-03-03 07:54 amSSE 5.1 8.0------ 66.0-----
2024-03-03 07:48 amSSE 5.1 8.0----29.93-------
2024-03-03 07:42 amSSE 4.1 7.0----29.92-------
2024-03-03 07:36 amSSE 4.1 6.0----29.92-------
2024-03-03 07:30 amSSE 2.9 5.1----29.92-------
2024-03-03 07:24 amSSE 4.1 5.1----29.92-------
2024-03-03 07:18 amSSE 4.1 7.0----29.92- 65.8-----
2024-03-03 07:12 am SE 5.1 7.0----29.92- 65.8-----
2024-03-03 07:06 amSSE 4.1 5.1----29.92- 65.8-----
2024-03-03 07:00 amSSE 2.9 5.1----29.92+0.01 66.0-----
2024-03-03 06:54 amSSE 1.9 5.1----29.92- 66.2-----
2024-03-03 06:48 amSSW 1.9 5.1----29.92-------
2024-03-03 06:42 am S 2.9 5.1----29.92-------
2024-03-03 06:36 amSSE 1.9 5.1----29.92-------
2024-03-03 06:18 am SE 2.9 4.1----29.91- 66.0-----
2024-03-03 06:12 am S 1.9 1.9----29.92- 65.8-----
2024-03-03 06:06 am- 0.0 2.9----29.92- 65.8-----
2024-03-03 06:00 amSSE 1.9 5.1----29.91+0.00 65.8-----
2024-03-03 05:54 am SE 4.1 6.0----29.91- 65.8-----
2024-03-03 05:48 am SE 2.9 5.1----29.91- 65.7-----
2024-03-03 05:42 am SE 2.9 4.1----29.91- 65.7-----
2024-03-03 05:36 amSSE 2.9 4.1----29.91- 65.7-----
2024-03-03 05:30 amSSE 2.9 6.0----29.91- 65.7-----
2024-03-03 05:24 amSSE 2.9 6.0----29.91- 65.7-----
2024-03-03 05:18 amSSW 2.9 5.1----29.91- 65.5-----
2024-03-03 05:12 amSSW 1.0 4.1----29.91- 65.5-----
2024-03-03 05:06 am SW 2.9 6.0----29.91- 65.3-----
2024-03-03 05:00 amSSW 4.1 5.1----29.91-0.02------
2024-03-03 04:54 amSSW 4.1 7.0----29.91-------
2024-03-03 04:48 am SW 4.1 8.0----29.91- 65.3-----
2024-03-03 04:42 am SW 4.1 8.0----29.90- 65.1-----
2024-03-03 04:36 amSSW 4.1 8.0----29.90- 65.1-----
2024-03-03 04:30 amSSW 5.1 7.0----29.90- 64.9-----
2024-03-03 04:24 amSSW 6.0 8.0----29.91- 64.9-----
2024-03-03 04:18 am SW 2.9 5.1----29.91- 64.8-----
2024-03-03 04:12 am S 2.9 8.0----29.91- 64.6-----
2024-03-03 04:06 am S 2.9 8.0----29.91- 64.4-----
2024-03-03 04:00 amSSE 2.9 7.0----29.91-0.03 64.4-----
2024-03-03 03:54 amSSE 4.1 6.0----29.91- 64.2-----
2024-03-03 03:48 amSSE 5.1 6.0----29.91- 64.2-----
2024-03-03 03:42 am S 2.9 5.1----29.91- 64.0-----
2024-03-03 03:36 amSSE 1.9 2.9----29.91- 63.9-----
2024-03-03 03:30 amSSE 2.9 6.0----29.91- 63.9-----
2024-03-03 03:24 amSSE 2.9 4.1----29.91- 63.7-----
2024-03-03 03:18 amSSE 1.9 2.9----29.91- 63.5-----
2024-03-03 03:12 am SE 1.9 4.1----29.91- 63.5-----
2024-03-03 03:06 am S 1.0 4.1----29.91- 63.5-----
2024-03-03 03:00 amSSE 2.9 5.1----29.91-0.04 63.3-----
2024-03-03 02:54 amSSE 2.9 4.1----29.91- 63.3-----
2024-03-03 02:48 am SE 1.9 2.9----29.92- 63.3-----
2024-03-03 02:42 am SE 1.9 4.1----29.92- 63.1-----
2024-03-03 02:36 amSSE 1.0 1.9----29.92- 63.1-----
2024-03-03 02:30 am SE 1.9 4.1----29.92- 63.0-----
2024-03-03 02:24 am SE 1.9 2.9----29.92- 63.0-----
2024-03-03 02:18 am SE 2.9 5.1----29.92- 62.8-----
2024-03-03 02:12 am SE 4.1 5.1----29.92- 62.8-----
2024-03-03 02:06 amSSE 1.9 5.1----29.92- 63.0-----
2024-03-03 02:00 amSSE 1.9 2.9----29.93-0.03 63.0-----
2024-03-03 01:54 amSSW 2.9 5.1----29.93- 63.0-----
2024-03-03 01:48 am S 4.1 6.0----29.93- 63.0-----
2024-03-03 01:42 amSSW 1.9 7.0----29.93- 63.0-----
2024-03-03 01:36 am S 4.1 8.9----29.93- 62.8-----
2024-03-03 01:30 am S 5.1 8.9----29.93- 62.6-----
2024-03-03 01:24 am S 5.1 11.1----29.93- 62.2-----
2024-03-03 01:18 amSSW 6.0 9.9----29.94- 62.4-----
2024-03-03 01:12 amSSE 4.1 8.0----29.94- 62.2-----
2024-03-03 01:06 amSSE 4.1 7.0----29.94- 62.2-----
2024-03-03 01:00 amSSE 6.0 8.9----29.94-0.02 62.4-----
2024-03-03 12:54 am S 6.0 9.9----29.94- 62.4-----
2024-03-03 12:48 amSSE 5.1 8.0----29.94- 62.4-----
2024-03-03 12:42 amSSW 4.1 7.0----29.94- 62.6-----
2024-03-03 12:36 amSSW 6.0 8.9----29.94- 62.4-----
2024-03-03 12:30 amSSW 4.1 7.0----29.94- 62.6-----
2024-03-03 12:24 am S 5.1 7.0----29.95- 62.8-----
2024-03-03 12:18 amSSW 5.1 7.0----29.95- 62.6-----
2024-03-03 12:12 amSSE 5.1 6.0----29.95- 62.4-----
2024-03-03 12:06 am S 4.1 5.1----29.95- 62.4-----
2024-03-03 12:00 am S 2.9 5.1----29.95-0.02 62.4-----
2024-03-02 11:54 pmSSE 4.1 5.1----29.95- 62.2-----
2024-03-02 11:48 pmSSE 4.1 8.0----29.96- 62.4-----
2024-03-02 11:42 pmSSE 4.1 7.0----29.96- 62.6-----
2024-03-02 11:36 pmSSW 2.9 6.0----29.96- 63.1-----
2024-03-02 11:30 pm S 4.1 6.0----29.96- 63.3-----
2024-03-02 11:24 pm S 4.1 7.0----29.96- 63.1-----
2024-03-02 11:18 pmSSW 4.1 6.0----29.96- 63.1-----
2024-03-02 11:12 pmSSW 2.9 5.1----29.96- 63.5-----
2024-03-02 11:06 pmSSW 4.1 7.0----29.96- 63.3-----
2024-03-02 11:00 pmSSW 2.9 5.1----29.96+0.00 63.7-----
2024-03-02 10:54 pmSSW 4.1 6.0----29.96- 63.5-----
2024-03-02 10:48 pm S 2.9 5.1----29.96- 63.9-----
2024-03-02 10:42 pm S 4.1 6.0----29.96- 63.7-----
2024-03-02 10:36 pmSSE 4.1 6.0----29.96- 63.7-----
2024-03-02 10:30 pmSSE 4.1 5.1----29.96- 64.0-----
2024-03-02 10:24 pmSSE 4.1 6.0----29.96- 64.0-----
2024-03-02 10:18 pm S 4.1 6.0----29.96- 64.2-----
2024-03-02 10:12 pmSSE 1.9 5.1----29.96- 64.4-----
2024-03-02 10:06 pm S 2.9 6.0----29.96- 64.6-----
2024-03-02 10:00 pm S 1.9 5.1----29.96+0.00 64.9-----
2024-03-02 09:54 pm S 4.1 6.0----29.96- 65.1-----
2024-03-02 09:48 pmSSW 1.9 2.9----29.96- 65.3-----
2024-03-02 09:42 pmSSE 1.0 5.1----29.95- 65.3-----
2024-03-02 09:36 pm S 4.1 6.0----29.96- 65.5-----
2024-03-02 09:30 pmSSE 5.1 6.0----29.96- 65.3-----
2024-03-02 09:24 pmSSE 5.1 6.0----29.97- 65.5-----
2024-03-02 09:18 pmSSE 5.1 7.0----29.97- 65.3-----
2024-03-02 09:12 pmSSE 5.1 8.9----29.97- 65.3-----
2024-03-02 09:06 pmSSW 4.1 7.0----29.97- 65.5-----
2024-03-02 09:00 pm S 5.1 7.0----29.97+0.02 65.7-----
2024-03-02 08:54 pmSSE 5.1 8.0----29.97- 65.5-----
2024-03-02 08:48 pmSSE 4.1 7.0----29.97- 65.8-----
2024-03-02 08:42 pmSSE 5.1 8.0----29.96- 65.8-----
2024-03-02 08:36 pmSSE 4.1 7.0----29.97- 66.2-----
2024-03-02 08:30 pmSSE 4.1 9.9----29.97- 66.2-----
2024-03-02 08:24 pm S 6.0 8.9----29.97- 66.4-----
2024-03-02 08:18 pmSSE 7.0 8.9----29.97- 66.6-----
2024-03-02 08:12 pm S 5.1 11.1----29.97- 67.1-----
2024-03-02 08:06 pm S 6.0 9.9----29.96- 67.3-----
2024-03-02 08:00 pm SW 7.0 12.0----29.96+0.00 67.5-----
2024-03-02 07:54 pmSSW 7.0 11.1----29.96- 67.6-----
2024-03-02 07:48 pmSSW 5.1 8.9----29.96- 67.6-----
2024-03-02 07:42 pmSSW 5.1 9.9----29.96- 67.6-----
2024-03-02 07:36 pmSSW 6.0 9.9----29.96- 67.8-----
2024-03-02 07:30 pm S 5.1 11.1----29.96- 68.0-----
2024-03-02 07:24 pm S 6.0 9.9----29.96- 68.4-----
2024-03-02 07:18 pmSSE 5.1 8.0----29.96- 68.4-----
2024-03-02 07:12 pm S 5.1 9.9----29.96- 68.4-----
2024-03-02 07:06 pm SW 4.1 8.0----29.96- 68.2-----
2024-03-02 07:00 pmSSW 5.1 8.0----29.96+0.00 68.5-----
2024-03-02 06:54 pm S 2.9 8.0----29.96- 68.7-----
2024-03-02 06:48 pmSSW 6.0 9.9----29.96- 68.7-----
2024-03-02 06:42 pmSSW 2.9 8.0----29.96- 68.2-----
2024-03-02 06:36 pmSSW 5.1 7.0----29.96- 68.4-----
2024-03-02 06:30 pmSSW 2.9 7.0----29.96- 68.7-----
2024-03-02 06:24 pmSSW 2.9 7.0----29.96- 68.5-----
2024-03-02 06:18 pm S 4.1 7.0----29.96- 68.9-----
2024-03-02 06:12 pm SE 5.1 7.0----29.96- 69.1-----
2024-03-02 06:06 pmSSE 6.0 8.0----29.95- 69.3-----
2024-03-02 06:00 pmSSE 6.0 8.9----29.95-0.01 69.1-----
2024-03-02 05:54 pm S 5.1 7.0----29.95- 69.1-----
2024-03-02 05:48 pmSSE 5.1 7.0----29.95-------
2024-03-02 05:42 pm S 5.1 7.0----29.95-------
2024-03-02 05:36 pmSSE 5.1 7.0----29.95-------
2024-03-02 05:30 pmSSE 5.1 8.0----29.95- 69.3-----
2024-03-02 05:24 pmSSE 4.1 7.0----29.95- 69.3-----
2024-03-02 05:18 pmSSE 5.1 7.0----29.96-------
2024-03-02 05:12 pm S 2.9 8.0----29.96-------
2024-03-02 05:06 pm SE 6.0 8.0----29.96-------
2024-03-02 05:00 pm S 5.1 8.0----29.96- 68.9-----
2024-03-02 04:54 pm S 2.9 7.0----29.96- 69.1-----
2024-03-02 04:48 pmSSE 4.1 8.9----29.96- 69.1-----
2024-03-02 04:42 pmSSE 5.1 8.0----29.96- 69.3-----
2024-03-02 04:36 pmSSE 6.0 8.0----29.96- 69.4-----
2024-03-02 04:30 pmSSE 7.0 9.9----29.97-------
2024-03-02 04:24 pm S 6.0 9.9----29.97-------
2024-03-02 04:18 pmSSE 5.1 8.9----29.96-------
2024-03-02 04:12 pmSSE 4.1 8.9----29.96-------
2024-03-02 04:06 pm SE 7.0 8.9----29.96-------
2024-03-02 04:00 pmSSE 6.0 9.9----29.96-0.05 69.8-----
2024-03-02 03:54 pmSSE 6.0 9.9----29.96- 69.8-----
2024-03-02 03:48 pmSSE 7.0 9.9----29.96- 70.0-----
2024-03-02 03:42 pmSSE 7.0 9.9----29.97- 70.0-----
2024-03-02 03:36 pmSSE 6.0 8.9----29.97- 70.2-----
2024-03-02 03:30 pmSSW 5.1 8.9----29.97- 69.8-----
2024-03-02 03:24 pm SE 7.0 12.0----29.96- 70.3-----
2024-03-02 03:18 pmSSE 6.0 8.0----29.96- 70.7-----
2024-03-02 03:12 pmSSE 7.0 11.1----29.96- 70.5-----
2024-03-02 03:06 pmSSE 6.0 8.9----29.96- 71.1-----
2024-03-02 03:00 pmSSE 6.0 8.9----29.96-0.09 71.1-----
2024-03-02 02:54 pm S 4.1 7.0----29.96- 70.9-----
2024-03-02 02:48 pm S 5.1 8.0----29.97-------
2024-03-02 02:42 pmSSE 5.1 8.0----29.97-------
2024-03-02 02:36 pmSSE 4.1 7.0----29.97-------
2024-03-02 02:30 pm SE 4.1 6.0----29.97- 70.9-----
2024-03-02 02:24 pmSSE 2.9 6.0----29.97- 70.9-----
2024-03-02 02:18 pmSSE 4.1 6.0----29.98- 70.9-----
2024-03-02 02:12 pmSSE 4.1 7.0----29.98- 70.7-----
2024-03-02 02:06 pm S 1.9 5.1----29.98- 70.5-----
2024-03-02 02:00 pm--------- 70.2-----
2024-03-02 01:54 pm--------- 70.5-----
2024-03-02 01:48 pmSSW 4.1 6.0----29.98- 70.0-----
2024-03-02 01:42 pm SW 2.9 6.0----29.99- 70.2-----
2024-03-02 01:36 pm W 2.9 6.0----29.99- 70.0-----
2024-03-02 01:30 pmSSW 1.9 5.1----29.99- 70.3-----
2024-03-02 01:24 pm S 2.9 5.1----29.99- 69.6-----
2024-03-02 01:18 pm- 0.0 4.1----30.00- 69.8-----
2024-03-02 01:12 pmSSE 5.1 7.0----30.01- 69.4-----
2024-03-02 01:06 pmWNW 1.0 5.1----30.01- 69.6-----
2024-03-02 01:00 pm S 2.9 5.1----30.01-0.06 69.1-----
2024-03-02 12:54 pm SE 2.9 5.1----30.01- 69.1-----